Starlink 11318

operational
NORAD ID: 61252 Int'l Des: 2024-175 Owner: SPXS Country: US Constellation: starlink
LEOCIRCULAR

关于 Starlink 11318

正在加载描述...

实时位置

正在加载3D地球...

即将过境

高度历史

Altitude vs Time

uPlot chart will show altitude changes over time

两行轨道根数

1 61252U 24175K 26034.24823166 -.00002723 00000-0 -17630-4 0 9999
2 61252 53.1590 226.2957 0000775 124.9952 235.1138 15.69708946 79122
Epoch: Feb 3, 2026 • Age: 38 hours

当前状态

高度 361.9 km
速度 7.69 km/s
星下点 -5.24°S, 137.56°E
发射日期 Sep 25, 2024
运行时间 1.3 years
类型 internet

技术详情

分类 Payload
质量 960.00 kg
干质量 910.00 kg
总质量 960.00 kg
长度 0.30 m
直径 4.10 m
跨度 29.00 m
形状 Box + pan
制造商 SPXS
平台类型 Starlink V2MD
阶段状态 In Orbit
所有者/国家 SPXS/US

大型星座

Loading constellations...